Regional Weather Roundup
Issued by NWS Kansas City/Pleasant Hill, MO

Home | Current Version | Previous Version | Text Only | Print | Product List | Glossary On
Versions: 1 2 3 4 5 6 7 8 9 10 11 12 13 14 15 16 17 18 19 20 21 22 23 24 25 26 27 28 29 30 31 32 33 34 35 36 37 38 39 40 41 42 43 44 45 46 47 48 49 50
000
ASUS43 KEAX 201410
RWREAX

WEATHER ROUNDUP FOR EASTERN KANSAS AND NORTHWEST MISSOURI
NATIONAL WEATHER SERVICE KANSAS CITY/PLEASANT HILL MO
800 AM CST MON FEB 20 2017

KSZ040-057-103>105-MOZ028-029-037-043-201500-
...KANSAS CITY METROPOLITAN AREA...

CITY           SKY/WX    TMP DP  RH WIND       PRES   REMARKS
K.C. INTL      LGT RAIN  61  55  81 S15       29.83R
K.C. DOWNTOWN  LGT RAIN  62  55  77 S13G21    29.83R
LEES SUMMIT    LGT RAIN  60  56  86 S13       29.85R
OLATHE - IXD   LGT RAIN  59  54  83 SE13      29.84R
OLATHE - OJC   LGT RAIN  58  56  93 S16       29.83S
LAWRENCE       CLOUDY    61  56  83 E12       29.80S

$$

MOZ001>008-011>017-020>025-030>033-038>040-044>046-053-054-201500-
...NORTHERN AND CENTRAL MISSOURI...

CITY           SKY/WX    TMP DP  RH WIND       PRES   REMARKS
ST. JOSEPH     CLOUDY    63  56  78 S14       29.81S
WARRENSBURG    CLOUDY    63  54  72 SE13      29.86S
WHITEMAN AFB   MOSUNNY   65  57  76 S17G24    29.86S
CLINTON        CLOUDY    64  54  68 S16G24    29.87S
SEDALIA        MOSUNNY   64  54  69 S14G23    29.90R
WARSAW         NOT AVBL
CHILLICOTHE      N/A     60  55  83 SE8       29.87F
KIRKSVILLE     CLOUDY    57  54  89 SE12      29.93S

$$

MOZ041-047>049-056>058-063>065-088>090-097-201500-
...EASTERN AND SOUTHERN MISSOURI...

CITY           SKY/WX    TMP DP  RH WIND       PRES   REMARKS
ST. LOUIS INTL PTSUNNY   56  51  84 SE10      30.06R HAZE
SPIRIT OF STL  CLOUDY    55  53  93 E5        30.04R FOG
COLUMBIA       CLOUDY    62  54  74 SE20      29.93F
JEFFERSON CITY CLOUDY    64  53  67 SE12      29.94S
ROLLA          SUNNY     61  52  72 SE17G25   29.97F
OSAGE BEACH    CLOUDY    63  53  70 S8        29.95R
SPRINGFIELD    PTSUNNY   60  53  77 SE21      29.92R
BRANSON        PTSUNNY   59  54  82 SE13      29.97R
JOPLIN         CLOUDY    61  61 100 S7        29.90R
WEST PLAINS    CLOUDY    59  52  77 SE9       30.03S

$$

IAZ060-094-KSZ022-034>040-054-083-096-NEZ052-066-093-201500-
...KANSAS...SOUTHEAST NEBRASKA AND IOWA...

CITY           SKY/WX    TMP DP  RH WIND       PRES   REMARKS
TOPEKA         LGT RAIN  60  56  86 SE8       29.79R
MANHATTAN      CLOUDY    58  56  93 CALM      29.78F
EMPORIA        CLOUDY    58  58 100 S17       29.78S
CHANUTE        MOCLDY    60  58  92 S9        29.83F
WICHITA        CLOUDY    56  55  97 S13       29.80R
OMAHA          CLOUDY    58  54  86 S15       29.76R FOG
LINCOLN        CLOUDY    59  57  93 S12       29.75R
FALLS CITY     LGT RAIN  59  56  89 S9        29.79R
LAMONI         CLOUDY    58  54  86 SE15      29.84S
DES MOINES     LGT RAIN  59  55  87 S14       29.84S

$$




USA.gov is the U.S. government's official web portal to all federal, state and local government web resources and services.